| time (UTC) | temp F | wind direction | speed MPH | gust MPH | rain 1hr in | rain 24hr in | rain mn in | humidity % | barometer mb |
| 20260507105312 | 29 | 238 | 2.0 | 2.0 | 0.00 | 0.00 | 0.00 | 81 | 1024.5 |
| 20260507104809 | 28 | 282 | 4.0 | 5.0 | 0.00 | 0.00 | 0.00 | 85 | 1024.7 |
| 20260507104305 | 29 | 266 | 2.0 | 3.0 | 0.00 | 0.00 | 0.00 | 84 | 1024.9 |
| 20260507103802 | 25 | 244 | 3.0 | 5.0 | 0.00 | 0.00 | 0.00 | 91 | 1024.7 |
| 20260507103258 | 26 | 219 | 2.0 | 3.0 | 0.00 | 0.00 | 0.00 | 91 | 1024.7 |
| 20260507102755 | 25 | 226 | 0.0 | 0.0 | 0.00 | 0.00 | 0.00 | 92 | 1024.9 |
| 20260507102252 | 26 | 147 | 2.0 | 3.0 | 0.00 | 0.00 | 0.00 | 92 | 1024.5 |
| 20260507101748 | 26 | 174 | 2.0 | 2.0 | 0.00 | 0.00 | 0.00 | 93 | 1024.7 |
| 20260507101243 | 26 | 180 | 2.0 | 2.0 | 0.00 | 0.00 | 0.00 | 92 | 1024.9 |
| 20260507100740 | 26 | 222 | 0.0 | 0.0 | 0.00 | 0.00 | 0.00 | 93 | 1024.6 |
| 20260507100238 | 26 | 230 | 0.0 | 0.0 | 0.00 | 0.00 | 0.00 | 92 | 1024.7 |
| 20260507095736 | 25 | 135 | 3.0 | 3.0 | 0.00 | 0.00 | 0.00 | 93 | 1024.6 |
| 20260507095232 | 25 | 206 | 0.0 | 0.0 | 0.00 | 0.00 | 0.00 | 94 | 1024.6 |
| 20260507094729 | 24 | 142 | 3.0 | 5.0 | 0.00 | 0.00 | 0.00 | 94 | 1024.7 |
| 20260507094226 | 24 | 171 | 2.0 | 2.0 | 0.00 | 0.00 | 0.00 | 95 | 1024.7 |
| 20260507093723 | 24 | 217 | 0.0 | 0.0 | 0.00 | 0.00 | 0.00 | 95 | 1025.0 |
| 20260507093222 | 24 | 219 | 0.0 | 0.0 | 0.00 | 0.00 | 0.00 | 94 | 1024.9 |
| 20260507092719 | 25 | 178 | 1.0 | 1.0 | 0.00 | 0.00 | 0.00 | 93 | 1024.9 |
| 20260507092215 | 25 | 182 | 1.0 | 2.0 | 0.00 | 0.00 | 0.00 | 93 | 1025.2 |
| 20260507091711 | 25 | 219 | 0.0 | 1.0 | 0.00 | 0.00 | 0.00 | 93 | 1025.0 |
| 20260507091208 | 25 | 224 | 0.0 | 0.0 | 0.00 | 0.00 | 0.00 | 93 | 1025.1 |
| 20260507090703 | 25 | 235 | 0.0 | 0.0 | 0.00 | 0.00 | 0.00 | 93 | 1025.0 |
| 20260507090200 | 24 | 149 | 4.0 | 5.0 | 0.00 | 0.00 | 0.00 | 94 | 1024.9 |
| 20260507085657 | 24 | 169 | 3.0 | 3.0 | 0.00 | 0.00 | 0.00 | 94 | 1024.7 |
| 20260507085154 | 24 | 173 | 0.0 | 1.0 | 0.00 | 0.00 | 0.00 | 94 | 1024.7 |
| 20260507084651 | 24 | 206 | 1.0 | 1.0 | 0.00 | 0.00 | 0.00 | 94 | 1024.9 |
| 20260507084147 | 24 | 145 | 2.0 | 2.0 | 0.00 | 0.00 | 0.00 | 93 | 1024.9 |
| 20260507083644 | 24 | 208 | 1.0 | 1.0 | 0.00 | 0.00 | 0.00 | 93 | 1025.0 |
| 20260507083141 | 24 | 204 | 1.0 | 1.0 | 0.00 | 0.00 | 0.00 | 94 | 1025.0 |
| 20260507082637 | 24 | 129 | 2.0 | 3.0 | 0.00 | 0.00 | 0.00 | 94 | 1024.9 |
| 20260507082134 | 24 | 220 | 2.0 | 2.0 | 0.00 | 0.00 | 0.00 | 94 | 1025.2 |
| 20260507081631 | 24 | 177 | 2.0 | 2.0 | 0.00 | 0.00 | 0.00 | 94 | 1025.4 |
| 20260507081127 | 24 | 236 | 2.0 | 2.0 | 0.00 | 0.00 | 0.00 | 94 | 1025.1 |
| 20260507080623 | 24 | 228 | 0.0 | 0.0 | 0.00 | 0.00 | 0.00 | 94 | 1025.5 |
| 20260507080120 | 24 | 133 | 4.0 | 5.0 | 0.00 | 0.00 | 0.00 | 94 | 1025.1 |
| 20260507075620 | 24 | 145 | 3.0 | 3.0 | 0.00 | 0.00 | 0.00 | 94 | 1025.4 |
| 20260507075116 | 24 | 226 | 0.0 | 0.0 | 0.00 | 0.00 | 0.00 | 93 | 1025.5 |
| 20260507074613 | 24 | 240 | 1.0 | 2.0 | 0.00 | 0.00 | 0.00 | 93 | 1025.0 |
| 20260507074112 | 24 | 238 | 2.0 | 2.0 | 0.00 | 0.00 | 0.00 | 93 | 1025.4 |
| 20260507073607 | 24 | 295 | 0.0 | 1.0 | 0.00 | 0.00 | 0.00 | 92 | 1025.2 |
| 20260507073104 | 25 | 204 | 1.0 | 1.0 | 0.00 | 0.00 | 0.00 | 92 | 1025.5 |
| 20260507072602 | 25 | 222 | 1.0 | 1.0 | 0.00 | 0.00 | 0.00 | 91 | 1025.5 |
| 20260507072059 | 26 | 173 | 3.0 | 3.0 | 0.00 | 0.00 | 0.00 | 90 | 1025.2 |
| 20260507071556 | 26 | 225 | 0.0 | 1.0 | 0.00 | 0.00 | 0.00 | 90 | 1025.5 |
| 20260507071052 | 26 | 230 | 1.0 | 1.0 | 0.00 | 0.00 | 0.00 | 89 | 1025.4 |
| 20260507070549 | 26 | 119 | 1.0 | 2.0 | 0.00 | 0.00 | 0.00 | 89 | 1025.6 |
| 20260507070046 | 27 | 225 | 0.0 | 0.0 | 0.00 | 0.00 | 0.00 | 86 | 1025.4 |
| 20260507065543 | 27 | 219 | 2.0 | 2.0 | 0.00 | 0.00 | 0.00 | 84 | 1025.4 |
| 20260507065040 | 27 | 204 | 2.0 | 3.0 | 0.00 | 0.00 | 0.00 | 86 | 1025.2 |
| 20260507064538 | 28 | 238 | 2.0 | 2.0 | 0.00 | 0.00 | 0.00 | 84 | 1025.2 |
| 20260507064036 | 29 | 195 | 2.0 | 2.0 | 0.00 | 0.00 | 0.00 | 82 | 1025.1 |
| 20260507063533 | 31 | 147 | 4.0 | 5.0 | 0.00 | 0.00 | 0.00 | 74 | 1024.9 |
| 20260507063030 | 32 | 137 | 2.0 | 3.0 | 0.00 | 0.00 | 0.00 | 69 | 1025.0 |
| 20260507062527 | 34 | 168 | 2.0 | 3.0 | 0.00 | 0.00 | 0.00 | 60 | 1024.7 |
| 20260507062025 | 31 | 220 | 6.0 | 9.0 | 0.00 | 0.00 | 0.00 | 59 | 1024.6 |
| 20260507061522 | 33 | 242 | 1.0 | 1.0 | 0.00 | 0.00 | 0.00 | 64 | 1024.9 |
| 20260507061020 | 34 | 359 | 0.0 | 1.0 | 0.00 | 0.00 | 0.00 | 61 | 1024.6 |
| 20260507060518 | 35 | 237 | 5.0 | 7.0 | 0.00 | 0.00 | 0.00 | 57 | 1024.5 |
| 20260507060014 | 34 | 260 | 8.0 | 10.0 | 0.00 | 0.23 | 0.23 | 56 | 1024.6 |
| 20260507055509 | 35 | 255 | 7.0 | 8.0 | 0.00 | 0.23 | 0.23 | 52 | 1024.2 |
| 20260507055006 | 35 | 238 | 5.0 | 6.0 | 0.00 | 0.23 | 0.23 | 58 | 1024.6 |
| 20260507054501 | 35 | 305 | 7.0 | 10.0 | 0.00 | 0.23 | 0.23 | 59 | 1024.4 |
| 20260507053959 | 33 | 253 | 6.0 | 7.0 | 0.00 | 0.23 | 0.23 | 67 | 1024.5 |
| 20260507053457 | 35 | 269 | 5.0 | 7.0 | 0.00 | 0.23 | 0.23 | 56 | 1024.6 |
| 20260507052955 | 33 | 233 | 7.0 | 10.0 | 0.00 | 0.23 | 0.23 | 59 | 1024.9 |
| 20260507052452 | 34 | 241 | 5.0 | 6.0 | 0.00 | 0.23 | 0.23 | 65 | 1024.7 |
| 20260507051949 | 33 | 254 | 5.0 | 6.0 | 0.00 | 0.23 | 0.23 | 60 | 1024.7 |
| 20260507051447 | 33 | 250 | 4.0 | 6.0 | 0.00 | 0.23 | 0.23 | 61 | 1024.7 |
| 20260507050943 | 32 | 263 | 4.0 | 5.0 | 0.00 | 0.23 | 0.23 | 70 | 1024.7 |
| 20260507050440 | 33 | 318 | 5.0 | 6.0 | 0.00 | 0.23 | 0.23 | 66 | 1024.7 |
| 20260507045937 | 32 | 298 | 5.0 | 6.0 | 0.00 | 0.23 | 0.23 | 71 | 1024.6 |
| 20260507045433 | 31 | 228 | 5.0 | 7.0 | 0.00 | 0.23 | 0.23 | 69 | 1024.6 |
| 20260507044930 | 31 | 261 | 6.0 | 7.0 | 0.00 | 0.23 | 0.23 | 68 | 1024.6 |
| 20260507044427 | 32 | 236 | 3.0 | 3.0 | 0.00 | 0.23 | 0.23 | 70 | 1024.9 |
| 20260507043923 | 33 | 249 | 4.0 | 5.0 | 0.00 | 0.23 | 0.23 | 69 | 1024.5 |
| 20260507043419 | 31 | 247 | 4.0 | 6.0 | 0.00 | 0.23 | 0.23 | 77 | 1024.4 |
| 20260507042916 | 31 | 253 | 5.0 | 5.0 | 0.00 | 0.23 | 0.23 | 78 | 1024.1 |
| 20260507042413 | 31 | 247 | 3.0 | 5.0 | 0.00 | 0.23 | 0.23 | 77 | 1024.5 |
| 20260507041908 | 28 | 239 | 5.0 | 7.0 | 0.00 | 0.23 | 0.23 | 91 | 1024.2 |
| 20260507041405 | 28 | 126 | 0.0 | 2.0 | 0.00 | 0.23 | 0.23 | 91 | 1024.0 |
| 20260507040903 | 29 | 230 | 1.0 | 2.0 | 0.00 | 0.23 | 0.23 | 91 | 1024.2 |
| 20260507040358 | 28 | 182 | 2.0 | 2.0 | 0.00 | 0.23 | 0.23 | 93 | 1024.1 |
| 20260507035854 | 28 | 217 | 4.0 | 5.0 | 0.00 | 0.23 | 0.23 | 95 | 1024.0 |
| 20260507035351 | 28 | 175 | 2.0 | 2.0 | 0.00 | 0.23 | 0.23 | 94 | 1024.1 |
| 20260507034848 | 29 | 160 | 2.0 | 2.0 | 0.00 | 0.23 | 0.23 | 92 | 1024.0 |
| 20260507034345 | 31 | 233 | 0.0 | 0.0 | 0.00 | 0.23 | 0.23 | 85 | 1024.1 |
| 20260507033843 | 31 | 235 | 2.0 | 2.0 | 0.00 | 0.23 | 0.23 | 82 | 1024.1 |
| 20260507033340 | 29 | 13 | 5.0 | 8.0 | 0.00 | 0.23 | 0.23 | 91 | 1023.8 |
| 20260507032837 | 28 | 219 | 0.0 | 1.0 | 0.00 | 0.23 | 0.23 | 99 | 1024.0 |
| 20260507032333 | 29 | 235 | 0.0 | 0.0 | 0.00 | 0.23 | 0.23 | 98 | 1024.1 |
| 20260507031830 | 29 | 199 | 1.0 | 1.0 | 0.00 | 0.23 | 0.23 | 98 | 1024.0 |
| 20260507031327 | 29 | 217 | 0.0 | 0.0 | 0.00 | 0.23 | 0.23 | 97 | 1023.6 |
| 20260507030823 | 30 | 193 | 0.0 | 1.0 | 0.00 | 0.23 | 0.23 | 98 | 1023.7 |
| 20260507030321 | 30 | 235 | 1.0 | 1.0 | 0.00 | 0.23 | 0.23 | 98 | 1023.6 |
| 20260507025817 | 30 | 175 | 3.0 | 3.0 | 0.00 | 0.23 | 0.23 | 99 | 1023.6 |
| 20260507025315 | 30 | 221 | 2.0 | 2.0 | 0.00 | 0.23 | 0.23 | 99 | 1023.7 |
| 20260507024813 | 30 | 220 | 0.0 | 1.0 | 0.00 | 0.23 | 0.23 | 99 | 1023.8 |
| 20260507024310 | 30 | 222 | 0.0 | 0.0 | 0.00 | 0.23 | 0.23 | 99 | 1023.2 |
| 20260507023805 | 30 | 253 | 0.0 | 0.0 | 0.00 | 0.23 | 0.23 | 99 | 1023.5 |
| 20260507023302 | 30 | 196 | 0.0 | 0.0 | 0.00 | 0.23 | 0.23 | 99 | 1023.5 |
| 20260507022800 | 30 | 212 | 0.0 | 0.0 | 0.00 | 0.23 | 0.23 | 99 | 1023.5 |
| 20260507022256 | 31 | 229 | 1.0 | 2.0 | 0.00 | 0.23 | 0.23 | 99 | 1023.1 |
| 20260507021752 | 31 | 137 | 3.0 | 5.0 | 0.00 | 0.23 | 0.23 | 99 | 1023.1 |
| 20260507021248 | 31 | 222 | 0.0 | 1.0 | 0.00 | 0.23 | 0.23 | 99 | 1023.2 |
| 20260507020746 | 31 | 179 | 3.0 | 3.0 | 0.00 | 0.23 | 0.23 | 99 | 1023.3 |
| 20260507020242 | 31 | 230 | 2.0 | 2.0 | 0.00 | 0.23 | 0.23 | 99 | 1023.2 |
| 20260507015740 | 32 | 226 | 0.0 | 0.0 | 0.00 | 0.23 | 0.23 | 99 | 1023.1 |
| 20260507015237 | 32 | 201 | 0.0 | 1.0 | 0.00 | 0.23 | 0.23 | 99 | 1022.8 |
| 20260507014734 | 32 | 232 | 0.0 | 0.0 | 0.00 | 0.23 | 0.23 | 99 | 1023.1 |
| 20260507014230 | 32 | 191 | 1.0 | 1.0 | 0.00 | 0.23 | 0.23 | 99 | 1023.5 |
| 20260507013727 | 32 | 227 | 2.0 | 2.0 | 0.00 | 0.23 | 0.23 | 99 | 1023.1 |
| 20260507013224 | 32 | 222 | 0.0 | 0.0 | 0.00 | 0.23 | 0.23 | 99 | 1023.2 |
| 20260507012721 | 33 | 234 | 0.0 | 1.0 | 0.00 | 0.23 | 0.23 | 99 | 1023.2 |
| 20260507012217 | 33 | 199 | 0.0 | 1.0 | 0.00 | 0.23 | 0.23 | 98 | 1023.0 |
| 20260507011715 | 33 | 230 | 0.0 | 0.0 | 0.00 | 0.23 | 0.23 | 98 | 1023.0 |
| 20260507011211 | 35 | 255 | 1.0 | 1.0 | 0.07 | 0.23 | 0.23 | 97 | 1023.2 |
| 20260507010710 | 35 | 254 | 1.0 | 1.0 | 0.07 | 0.23 | 0.23 | 97 | 1023.0 |
| 20260507010207 | 36 | 242 | 0.0 | 0.0 | 0.07 | 0.23 | 0.23 | 97 | 1023.1 |
| 20260507005705 | 36 | 238 | 0.0 | 0.0 | 0.00 | 0.22 | 0.22 | 97 | 1023.0 |
| 20260507005201 | 36 | 242 | 0.0 | 1.0 | 0.05 | 0.22 | 0.22 | 97 | 1023.0 |
| 20260507004657 | 35 | 234 | 0.0 | 0.0 | 0.05 | 0.22 | 0.22 | 97 | 1023.1 |
| 20260507004155 | 36 | 245 | 3.0 | 3.0 | 0.07 | 0.21 | 0.21 | 97 | 1023.0 |
| 20260507003651 | 35 | 221 | 0.0 | 1.0 | 0.07 | 0.21 | 0.21 | 97 | 1022.8 |
| 20260507003151 | 35 | 243 | 1.0 | 1.0 | 0.05 | 0.20 | 0.20 | 96 | 1022.8 |
| 20260507002648 | 35 | 238 | 0.0 | 1.0 | 0.05 | 0.20 | 0.20 | 98 | 1022.8 |
| 20260507002144 | 34 | 314 | 2.0 | 2.0 | 0.07 | 0.19 | 0.19 | 96 | 1022.6 |
| 20260507001641 | 35 | 245 | 3.0 | 3.0 | 0.07 | 0.19 | 0.19 | 96 | 1022.8 |
| 20260507001138 | 35 | 323 | 3.0 | 3.0 | 0.05 | 0.18 | 0.18 | 95 | 1023.2 |
| 20260507000634 | 36 | 317 | 3.0 | 5.0 | 0.12 | 0.18 | 0.18 | 93 | 1022.8 |
| 20260507000130 | 37 | 276 | 3.0 | 3.0 | 0.12 | 0.17 | 0.17 | 90 | 1022.7 |
| 20260506235628 | 36 | 243 | 0.0 | 0.0 | 0.12 | 0.16 | 0.16 | 91 | 1023.1 |
| 20260506235128 | 36 | 270 | 0.0 | 0.0 | 0.19 | 0.15 | 0.15 | 91 | 1022.7 |
| 20260506234625 | 36 | 231 | 0.0 | 0.0 | 0.12 | 0.14 | 0.14 | 90 | 1022.8 |
| 20260506234122 | 36 | 224 | 0.0 | 0.0 | 0.00 | 0.12 | 0.12 | 89 | 1022.6 |
| 20260506233619 | 35 | 231 | 1.0 | 2.0 | 0.00 | 0.12 | 0.12 | 89 | 1022.7 |
| 20260506233116 | 35 | 254 | 0.0 | 1.0 | 0.07 | 0.12 | 0.12 | 90 | 1023.0 |
| 20260506232612 | 36 | 221 | 1.0 | 1.0 | 0.12 | 0.12 | 0.12 | 85 | 1022.8 |
| 20260506232108 | 38 | 213 | 1.0 | 1.0 | 0.19 | 0.12 | 0.12 | 85 | 1022.6 |
| 20260506231605 | 37 | 230 | 0.0 | 0.0 | 0.12 | 0.10 | 0.10 | 89 | 1022.6 |
| 20260506231103 | 36 | 158 | 3.0 | 3.0 | 0.17 | 0.09 | 0.09 | 88 | 1022.8 |
| 20260506230559 | 37 | 227 | 0.0 | 0.0 | 0.19 | 0.08 | 0.08 | 89 | 1023.0 |
| 20260506230057 | 36 | 207 | 1.0 | 2.0 | 0.17 | 0.07 | 0.07 | 87 | 1022.7 |
| 20260506225553 | 35 | 216 | 0.0 | 0.0 | 0.17 | 0.05 | 0.05 | 87 | 1022.7 |
| 20260506225050 | 36 | 225 | 2.0 | 2.0 | 0.12 | 0.04 | 0.04 | 88 | 1022.8 |
| 20260506224547 | 35 | 223 | 0.0 | 0.0 | 0.12 | 0.03 | 0.03 | 89 | 1023.1 |
| 20260506224044 | 35 | 201 | 0.0 | 0.0 | 0.07 | 0.02 | 0.02 | 88 | 1022.6 |
| 20260506223539 | 33 | 235 | 1.0 | 1.0 | 0.05 | 0.01 | 0.01 | 92 | 1022.7 |
| 20260506223036 | 33 | 296 | 1.0 | 1.0 | 0.05 | 0.01 | 0.01 | 89 | 1023.0 |
| 20260506222533 | 34 | 141 | 4.0 | 5.0 | 0.00 | 0.00 | 0.00 | 86 | 1022.8 |
| 20260506222029 | 39 | 141 | 0.0 | 0.0 | 0.00 | 0.00 | 0.00 | 79 | 1023.0 |
| 20260506221527 | 37 | 123 | 0.0 | 1.0 | 0.00 | 0.00 | 0.00 | 85 | 1023.0 |
| 20260506221024 | 37 | 139 | 0.0 | 0.0 | 0.00 | 0.00 | 0.00 | 85 | 1023.1 |
| 20260506220520 | 37 | 145 | 0.0 | 0.0 | 0.00 | 0.00 | 0.00 | 83 | 1023.0 |
| 20260506220016 | 35 | 151 | 0.0 | 0.0 | 0.00 | 0.00 | 0.00 | 85 | 1023.0 |
| 20260506215513 | 35 | 172 | 0.0 | 0.0 | 0.00 | 0.00 | 0.00 | 84 | 1023.0 |
| 20260506215009 | 35 | 198 | 0.0 | 0.0 | 0.00 | 0.00 | 0.00 | 85 | 1023.2 |
| 20260506214506 | 35 | 193 | 0.0 | 0.0 | 0.00 | 0.00 | 0.00 | 85 | 1023.1 |
| 20260506214003 | 33 | 195 | 0.0 | 0.0 | 0.00 | 0.00 | 0.00 | 85 | 1023.1 |
| 20260506213501 | 33 | 210 | 0.0 | 0.0 | 0.00 | 0.00 | 0.00 | 85 | 1023.0 |
| 20260506212958 | 35 | 162 | 0.0 | 0.0 | 0.00 | 0.00 | 0.00 | 82 | 1023.2 |
| 20260506212454 | 34 | 263 | 0.0 | 0.0 | 0.00 | 0.00 | 0.00 | 84 | 1023.5 |
| 20260506211949 | 33 | 214 | 0.0 | 0.0 | 0.00 | 0.00 | 0.00 | 85 | 1023.1 |
| 20260506211445 | 33 | 212 | 0.0 | 0.0 | 0.00 | 0.00 | 0.00 | 86 | 1023.2 |
| 20260506210943 | 33 | 196 | 0.0 | 0.0 | 0.00 | 0.00 | 0.00 | 84 | 1023.5 |
| 20260506210439 | 32 | 259 | 0.0 | 0.0 | 0.00 | 0.00 | 0.00 | 89 | 1023.5 |
| 20260506205936 | 32 | 244 | 0.0 | 0.0 | 0.00 | 0.00 | 0.00 | 89 | 1023.6 |
| 20260506205432 | 33 | 208 | 0.0 | 0.0 | 0.00 | 0.00 | 0.00 | 86 | 1023.5 |
| 20260506204928 | 33 | 191 | 0.0 | 0.0 | 0.00 | 0.00 | 0.00 | 83 | 1023.7 |
| 20260506204427 | 33 | 260 | 0.0 | 0.0 | 0.00 | 0.00 | 0.00 | 83 | 1023.7 |
| 20260506203924 | 31 | 271 | 0.0 | 0.0 | 0.00 | 0.00 | 0.00 | 85 | 1023.5 |
| 20260506203421 | 31 | 283 | 0.0 | 0.0 | 0.00 | 0.00 | 0.00 | 86 | 1024.1 |
| 20260506202917 | 31 | 285 | 0.0 | 0.0 | 0.00 | 0.00 | 0.00 | 85 | 1023.8 |
| 20260506202414 | 31 | 288 | 0.0 | 0.0 | 0.00 | 0.00 | 0.00 | 87 | 1023.7 |
| 20260506201911 | 30 | 295 | 0.0 | 0.0 | 0.00 | 0.00 | 0.00 | 92 | 1024.0 |
| 20260506201409 | 30 | 297 | 0.0 | 0.0 | 0.00 | 0.00 | 0.00 | 93 | 1024.1 |
| 20260506200905 | 29 | 297 | 0.0 | 0.0 | 0.00 | 0.00 | 0.00 | 94 | 1024.1 |
| 20260506200401 | 29 | 298 | 0.0 | 0.0 | 0.00 | 0.00 | 0.00 | 93 | 1024.2 |
| 20260506195858 | 29 | 298 | 0.0 | 0.0 | 0.00 | 0.00 | 0.00 | 94 | 1024.0 |
| 20260506195355 | 28 | 298 | 0.0 | 0.0 | 0.00 | 0.00 | 0.00 | 93 | 1024.0 |
| 20260506194852 | 28 | 299 | 0.0 | 0.0 | 0.00 | 0.00 | 0.00 | 93 | 1024.1 |
| 20260506194349 | 29 | 299 | 0.0 | 0.0 | 0.00 | 0.00 | 0.00 | 93 | 1024.0 |
| 20260506193846 | 29 | 269 | 0.0 | 0.0 | 0.00 | 0.00 | 0.00 | 93 | 1024.1 |
| 20260506193342 | 29 | 269 | 0.0 | 0.0 | 0.00 | 0.00 | 0.00 | 91 | 1024.0 |
| 20260506192838 | 29 | 269 | 0.0 | 0.0 | 0.00 | 0.00 | 0.00 | 92 | 1024.1 |
| 20260506192336 | 30 | 270 | 0.0 | 0.0 | 0.00 | 0.00 | 0.00 | 91 | 1024.2 |
| 20260506191833 | 29 | 269 | 0.0 | 0.0 | 0.00 | 0.00 | 0.00 | 90 | 1024.0 |
| 20260506191329 | 30 | 269 | 0.0 | 0.0 | 0.00 | 0.00 | 0.00 | 91 | 1024.2 |
| 20260506190826 | 30 | 269 | 0.0 | 0.0 | 0.00 | 0.00 | 0.00 | 91 | 1024.1 |
| 20260506190322 | 31 | 269 | 0.0 | 0.0 | 0.00 | 0.00 | 0.00 | 90 | 1024.4 |
| 20260506185820 | 30 | 264 | 0.0 | 0.0 | 0.00 | 0.00 | 0.00 | 91 | 1024.1 |
| 20260506185316 | 30 | 265 | 0.0 | 0.0 | 0.00 | 0.00 | 0.00 | 91 | 1024.4 |
| 20260506184813 | 30 | 267 | 0.0 | 0.0 | 0.00 | 0.00 | 0.00 | 92 | 1024.1 |
| 20260506184311 | 29 | 268 | 0.0 | 0.0 | 0.00 | 0.00 | 0.00 | 92 | 1024.2 |
| 20260506183808 | 29 | 270 | 0.0 | 0.0 | 0.00 | 0.00 | 0.00 | 93 | 1024.5 |
| 20260506183303 | 28 | 271 | 0.0 | 0.0 | 0.00 | 0.00 | 0.00 | 92 | 1024.6 |
| 20260506182800 | 28 | 271 | 0.0 | 0.0 | 0.00 | 0.00 | 0.00 | 93 | 1024.5 |
| 20260506182257 | 29 | 271 | 0.0 | 0.0 | 0.00 | 0.00 | 0.00 | 92 | 1024.4 |
| 20260506181755 | 28 | 273 | 0.0 | 0.0 | 0.00 | 0.00 | 0.00 | 93 | 1024.2 |
| 20260506181253 | 28 | 273 | 0.0 | 0.0 | 0.00 | 0.00 | 0.00 | 95 | 1024.5 |
| 20260506180750 | 28 | 274 | 0.0 | 0.0 | 0.00 | 0.00 | 0.00 | 94 | 1024.5 |
| 20260506180246 | 28 | 274 | 0.0 | 0.0 | 0.00 | 0.00 | 0.00 | 94 | 1024.4 |
| 20260506175742 | 28 | 274 | 0.0 | 0.0 | 0.00 | 0.00 | 0.00 | 94 | 1024.6 |
| 20260506175239 | 28 | 274 | 0.0 | 0.0 | 0.00 | 0.00 | 0.00 | 94 | 1024.4 |
| 20260506174737 | 27 | 274 | 0.0 | 0.0 | 0.00 | 0.00 | 0.00 | 95 | 1024.5 |
| 20260506174233 | 27 | 274 | 0.0 | 0.0 | 0.00 | 0.00 | 0.00 | 95 | 1024.6 |
| 20260506173732 | 27 | 275 | 0.0 | 0.0 | 0.00 | 0.00 | 0.00 | 95 | 1024.7 |
| 20260506173228 | 27 | 275 | 0.0 | 0.0 | 0.00 | 0.00 | 0.00 | 96 | 1024.2 |
| 20260506172724 | 27 | 275 | 0.0 | 0.0 | 0.00 | 0.00 | 0.00 | 96 | 1024.4 |
| 20260506172221 | 27 | 275 | 0.0 | 0.0 | 0.00 | 0.00 | 0.00 | 96 | 1024.1 |
| 20260506171719 | 27 | 275 | 0.0 | 0.0 | 0.00 | 0.00 | 0.00 | 96 | 1024.4 |
| 20260506171216 | 27 | 275 | 0.0 | 0.0 | 0.00 | 0.00 | 0.00 | 96 | 1024.2 |
| 20260506170713 | 26 | 275 | 0.0 | 0.0 | 0.00 | 0.00 | 0.00 | 96 | 1024.2 |
| 20260506170210 | 26 | 275 | 0.0 | 0.0 | 0.00 | 0.00 | 0.00 | 96 | 1024.1 |
| 20260506165709 | 26 | 275 | 0.0 | 0.0 | 0.00 | 0.00 | 0.00 | 96 | 1024.1 |
| 20260506165205 | 26 | 275 | 0.0 | 0.0 | 0.00 | 0.00 | 0.00 | 96 | 1024.0 |
| 20260506164702 | 26 | 275 | 0.0 | 0.0 | 0.00 | 0.00 | 0.00 | 96 | 1024.0 |
| 20260506164159 | 26 | 275 | 0.0 | 0.0 | 0.00 | 0.00 | 0.00 | 95 | 1023.6 |
| 20260506163655 | 27 | 275 | 0.0 | 0.0 | 0.00 | 0.00 | 0.00 | 95 | 1023.6 |
| 20260506163151 | 28 | 275 | 0.0 | 0.0 | 0.00 | 0.00 | 0.00 | 95 | 1023.5 |
| 20260506162647 | 28 | 275 | 0.0 | 0.0 | 0.00 | 0.00 | 0.00 | 95 | 1023.5 |
| 20260506162145 | 28 | 275 | 0.0 | 0.0 | 0.00 | 0.00 | 0.00 | 96 | 1023.5 |
| 20260506161642 | 27 | 275 | 0.0 | 0.0 | 0.00 | 0.00 | 0.00 | 96 | 1023.3 |
| 20260506161138 | 27 | 275 | 0.0 | 0.0 | 0.00 | 0.00 | 0.00 | 96 | 1023.3 |
| 20260506160636 | 26 | 275 | 0.0 | 0.0 | 0.00 | 0.00 | 0.00 | 97 | 1023.5 |
| 20260506160133 | 26 | 275 | 0.0 | 0.0 | 0.00 | 0.00 | 0.00 | 97 | 1023.3 |
| 20260506155632 | 26 | 275 | 0.0 | 0.0 | 0.00 | 0.00 | 0.00 | 97 | 1023.6 |
| 20260506155128 | 25 | 275 | 0.0 | 0.0 | 0.00 | 0.00 | 0.00 | 98 | 1023.1 |
| 20260506153230 | 25 | 275 | 0.0 | 0.0 | 0.00 | 0.00 | 0.00 | 98 | 1023.1 |
| 20260506152727 | 26 | 275 | 0.0 | 0.0 | 0.00 | 0.00 | 0.00 | 99 | 1023.2 |
| 20260506152225 | 26 | 275 | 0.0 | 0.0 | 0.00 | 0.00 | 0.00 | 99 | 1023.2 |
| 20260506151724 | 26 | 275 | 0.0 | 0.0 | 0.00 | 0.00 | 0.00 | 99 | 1023.1 |
| 20260506151219 | 26 | 275 | 0.0 | 0.0 | 0.00 | 0.00 | 0.00 | 99 | 1023.0 |
| 20260506150716 | 26 | 275 | 0.0 | 0.0 | 0.00 | 0.00 | 0.00 | 99 | 1022.8 |
| 20260506150213 | 26 | 275 | 0.0 | 0.0 | 0.00 | 0.00 | 0.00 | 99 | 1023.1 |
| 20260506145710 | 25 | 275 | 0.0 | 0.0 | 0.00 | 0.00 | 0.00 | 99 | 1023.0 |
| 20260506145207 | 25 | 275 | 0.0 | 0.0 | 0.00 | 0.00 | 0.00 | 99 | 1022.8 |
| 20260506144704 | 25 | 275 | 0.0 | 0.0 | 0.00 | 0.00 | 0.00 | 99 | 1023.0 |
| 20260506144201 | 25 | 275 | 0.0 | 0.0 | 0.00 | 0.00 | 0.00 | 99 | 1023.0 |
| 20260506143659 | 25 | 275 | 0.0 | 0.0 | 0.00 | 0.00 | 0.00 | 99 | 1022.8 |
| 20260506143156 | 25 | 276 | 0.0 | 0.0 | 0.00 | 0.00 | 0.00 | 99 | 1022.5 |
| 20260506142655 | 25 | 276 | 0.0 | 0.0 | 0.00 | 0.00 | 0.00 | 99 | 1022.8 |
| 20260506142152 | 25 | 276 | 0.0 | 0.0 | 0.00 | 0.00 | 0.00 | 99 | 1022.5 |
| 20260506141650 | 25 | 276 | 0.0 | 0.0 | 0.00 | 0.00 | 0.00 | 99 | 1022.6 |
| 20260506141148 | 25 | 276 | 0.0 | 0.0 | 0.00 | 0.00 | 0.00 | 99 | 1022.3 |
| 20260506140645 | 25 | 276 | 0.0 | 0.0 | 0.00 | 0.00 | 0.00 | 99 | 1022.8 |
| 20260506140142 | 25 | 276 | 0.0 | 0.0 | 0.00 | 0.00 | 0.00 | 99 | 1022.3 |
| 20260506135639 | 25 | 276 | 0.0 | 0.0 | 0.00 | 0.00 | 0.00 | 99 | 1022.6 |
| 20260506135135 | 25 | 276 | 0.0 | 0.0 | 0.00 | 0.00 | 0.00 | 99 | 1022.2 |
| 20260506134632 | 25 | 276 | 0.0 | 0.0 | 0.00 | 0.00 | 0.00 | 99 | 1022.6 |
| 20260506134128 | 24 | 276 | 0.0 | 0.0 | 0.00 | 0.00 | 0.00 | 99 | 1022.2 |
| 20260506133625 | 24 | 277 | 0.0 | 0.0 | 0.00 | 0.00 | 0.00 | 99 | 1022.1 |
| 20260506133122 | 24 | 277 | 0.0 | 0.0 | 0.00 | 0.00 | 0.00 | 99 | 1022.3 |
| 20260506132620 | 24 | 277 | 0.0 | 0.0 | 0.00 | 0.00 | 0.00 | 99 | 1022.2 |
| 20260506132116 | 24 | 277 | 0.0 | 0.0 | 0.00 | 0.00 | 0.00 | 99 | 1021.8 |
| 20260506131614 | 24 | 277 | 0.0 | 0.0 | 0.00 | 0.00 | 0.00 | 99 | 1022.1 |
| 20260506131110 | 24 | 277 | 0.0 | 0.0 | 0.00 | 0.00 | 0.00 | 99 | 1022.3 |
| 20260506130607 | 24 | 277 | 0.0 | 0.0 | 0.00 | 0.00 | 0.00 | 99 | 1022.2 |
| 20260506130104 | 24 | 277 | 0.0 | 0.0 | 0.00 | 0.00 | 0.00 | 99 | 1021.7 |
| 20260506125603 | 24 | 277 | 0.0 | 0.0 | 0.00 | 0.00 | 0.00 | 99 | 1022.0 |
| 20260506125100 | 24 | 277 | 0.0 | 0.0 | 0.00 | 0.00 | 0.00 | 99 | 1021.7 |
| 20260506124557 | 24 | 277 | 0.0 | 0.0 | 0.00 | 0.00 | 0.00 | 99 | 1021.4 |
| 20260506124055 | 24 | 277 | 0.0 | 0.0 | 0.00 | 0.00 | 0.00 | 99 | 1021.6 |
| 20260506123552 | 24 | 277 | 0.0 | 0.0 | 0.00 | 0.00 | 0.00 | 99 | 1021.4 |
| 20260506123051 | 24 | 277 | 0.0 | 0.0 | 0.00 | 0.00 | 0.00 | 99 | 1021.3 |
| 20260506122547 | 24 | 277 | 0.0 | 0.0 | 0.00 | 0.00 | 0.00 | 99 | 1021.1 |
| 20260506122046 | 24 | 277 | 0.0 | 0.0 | 0.00 | 0.00 | 0.00 | 99 | 1021.2 |
| 20260506121543 | 24 | 277 | 0.0 | 0.0 | 0.00 | 0.00 | 0.00 | 99 | 1021.3 |
| 20260506121038 | 24 | 277 | 0.0 | 0.0 | 0.00 | 0.00 | 0.00 | 99 | 1020.9 |
| 20260506120537 | 24 | 277 | 0.0 | 0.0 | 0.00 | 0.00 | 0.00 | 99 | 1021.3 |
| 20260506120034 | 24 | 277 | 0.0 | 0.0 | 0.00 | 0.00 | 0.00 | 99 | 1020.9 |
| 20260506115532 | 24 | 277 | 0.0 | 0.0 | 0.00 | 0.00 | 0.00 | 99 | 1020.9 |
| 20260506115030 | 24 | 277 | 0.0 | 0.0 | 0.00 | 0.00 | 0.00 | 99 | 1021.3 |
| 20260506114527 | 24 | 277 | 0.0 | 0.0 | 0.00 | 0.00 | 0.00 | 99 | 1020.9 |
| 20260506114026 | 24 | 277 | 0.0 | 0.0 | 0.00 | 0.00 | 0.00 | 99 | 1021.2 |
| 20260506113523 | 24 | 277 | 0.0 | 0.0 | 0.00 | 0.00 | 0.00 | 99 | 1020.9 |
| 20260506113020 | 24 | 277 | 0.0 | 0.0 | 0.00 | 0.00 | 0.00 | 99 | 1021.2 |
| 20260506112516 | 24 | 277 | 0.0 | 0.0 | 0.00 | 0.00 | 0.00 | 99 | 1020.9 |
| 20260506112014 | 24 | 277 | 0.0 | 0.0 | 0.00 | 0.00 | 0.00 | 99 | 1020.9 |
| 20260506111512 | 24 | 277 | 0.0 | 0.0 | 0.00 | 0.00 | 0.00 | 99 | 1020.9 |
| 20260506111009 | 24 | 277 | 0.0 | 0.0 | 0.00 | 0.00 | 0.00 | 99 | 1020.9 |
| 20260506110507 | 24 | 276 | 0.0 | 0.0 | 0.00 | 0.00 | 0.00 | 99 | 1020.6 |
| 20260506110004 | 24 | 276 | 0.0 | 0.0 | 0.00 | 0.00 | 0.00 | 99 | 1020.6 |